Regional Weather Roundup
Issued by NWS Cleveland, OH

Home | Current Version | Previous Version | Graphics & Text | Print | Product List | Glossary On
Versions: 1 2 3 4 5 6 7 8 9 10 11 12 13 14 15 16 17 18 19 20 21 22 23 24 25 26 27 28 29 30 31 32 33 34 35 36 37 38 39 40 41 42 43 44 45 46 47 48 49 50
000
ASUS41 KCLE 220210
RWRCLE
OHIO REGIONAL WEATHER ROUNDUP
NATIONAL WEATHER SERVICE WILMINGTON, OH
1000 PM EDT MON JUL 21 2014

NOTE: "FAIR" INDICATES FEW OR NO CLOUDS BELOW 12,000 FEET WITH NO
SIGNIFICANT WEATHER AND/OR OBSTRUCTIONS TO VISIBILITY.

OHZ001>008-015>018-024>027-034-035-043-044-220300-
   NORTHWEST OHIO

CITY           SKY/WX    TMP DP  RH WIND       PRES   REMARKS
DEFIANCE       CLEAR     74  62  66 CALM      30.11R
FINDLAY        CLEAR     77  66  68 E7        30.11R
TOLEDO EXPRESS CLEAR     74  60  61 SE3       30.12R
TOLEDO METCALF CLEAR     73  59  61 E5        30.13R
LIMA           CLEAR     76  65  68 CALM      30.12R
$$

OHZ009>014-019>023-028>033-038-089-220300-
   NORTHEAST OHIO

CITY           SKY/WX    TMP DP  RH WIND       PRES   REMARKS
CLE-HOPKINS    CLEAR     74  58  57 NE5       30.15R
CLE-LAKEFRONT  CLEAR     75  58  55 E3        30.11S
CUY CO. ARPT   PTCLDY    72  61  68 E7        30.15R
LORAIN-ELYRIA  CLEAR     73  60  63 CALM      30.14R
ASHTABULA      CLEAR     65  62  90 CALM      30.15S
AKRON-CANTON   MOCLDY    73  62  68 NE7       30.15R
WOOSTER        CLEAR     68  62  81 CALM      30.15R
MANSFIELD      CLEAR     72  62  71 NE5       30.15R
YOUNGSTOWN     PTCLDY    72  65  78 NE7       30.15R
$$

OHZ042-051>053-060>062-070>072-077>081-220300-
  SOUTHWEST OHIO

CITY           SKY/WX    TMP DP  RH WIND       PRES   REMARKS
CINC-COVINGTON CLEAR     79  65  62 N6        30.09R
CINC-LUNKEN    CLEAR     73  70  90 CALM      30.08R
HAMILTON       CLEAR     71  68  90 CALM      30.09S
DAYTON         CLEAR     76  65  68 N3        30.12R
WRIGHT-PAT AFB CLEAR     74  68  83 N2        30.11R
DAYTON GENERAL CLEAR     74  66  76 NE3       30.10R
WILMINGTON     CLEAR     73  67  81 NE3       30.11R
$$

OHZ036-037-039>041-045>050-054>059-063>069-073>076-082>088-220300-
  CENTRAL AND SOUTHEAST OHIO

CITY           SKY/WX    TMP DP  RH WIND       PRES   REMARKS
COLUMBUS       CLEAR     79  65  62 CALM      30.10R
OSU AIRPORT    CLEAR     76  66  71 N3        30.11R
BOLTON FIELD   CLEAR     71  68  91 CALM      30.11R
RICKENBACK AFB CLEAR     81  61  51 CALM      30.09R
NEWARK         CLEAR     73  69  87 CALM      30.11R
MARION         CLEAR     73  66  78 NE8       30.13R
LANCASTER      CLEAR     73  69  87 CALM      30.11R
ZANESVILLE     CLEAR     76  69  79 CALM      30.12R
NEW PHILLY     CLEAR     71  69  93 CALM      30.13R
$$



USA.gov is the U.S. government's official web portal to all federal, state and local government web resources and services.